[[{"header":{"parameterUnit":"m.s-1","parameterCategory":1,"la1":30.2991,"la2":30.254,"lo1":-89.0895,"lo2":-89.0444,"dy":0.0017,"dx":0.0017,"nx":28,"ny":28,"refTime":"2023-09-08T21:00:00:Z","depth":0,"parameterNumber":2,"parameterNumberName":"U-component_of_WINDS"},"data":[0,0,0,0,0,0,0,0,0,0,0,0,0,0,0,0,0,0,0,0,0,0,0,0,0,0,0,0,0,0,0,0,0,0,0,0,0,0,0,0,0,0,0,0,0,0,0,0,0,0,0,0,0,0,0,0,0,0,0.8942,0.8943,0,0.9052,0.9054,0.9055,0.9063,0.9062,0.906,0.9059,0.9177,0.9181,0.9185,0,0,0,0,0,0,0,0,0,0,0,0,0,0.874,0.8744,0.8942,0.8943,0.8944,0.9052,0.9054,0.9055,0.9063,0.9062,0.906,0.9059,0.9176,0.9181,0.9186,0,0,0,0,0,0,0,0,0,0,0,0,0,0.8837,0.8745,0.8941,0.8961,0.8964,0.9052,0.9054,0.9056,0.9063,0.9061,0.906,0.9058,0.9174,0.918,0.9186,0.9263,0,0,0.9206,0.9209,0,0,0,0,0,0,0,0,0.8832,0.8845,0.8957,0.896,0.8963,0.9042,0.9026,0.9125,0.9064,0.9026,0.9059,0.9057,0.9134,0.9143,0.9168,0.9269,0.9274,0.9207,0.9211,0.9213,0.9215,0,0,0,0,0,0,0,0.8825,0.884,0.8986,0.8958,0.8962,0.8966,0.8977,0.9045,0.9089,0.9029,0.903,0.9043,0.9135,0.9162,0.9171,0.9276,0.9207,0.9212,0.9216,0.9219,0.9444,0.9446,0,0,0,0,0,0,0.8814,0.8834,0.8982,0.8989,0.8891,0.8971,0.8984,0.9019,0.9088,0.9097,0.9044,0.9042,0.9152,0.9164,0.9175,0.9269,0.9213,0.9219,0.9223,0.9442,0.9444,0.9447,0,0,0,0,0,0,0.8809,0.8827,0.8978,0.8912,0.8931,0.8976,0.9015,0.9022,0.9049,0.91,0.9108,0.9063,0.9151,0.9166,0.9241,0.9274,0.9222,0.9228,0.9439,0.9443,0.9446,0.9458,0,0,0,0,0,0,0.8804,0.8825,0.8854,0.8912,0.8935,0.904,0.9017,0.9025,0.9059,0.9058,0.912,0.9128,0.9151,0.9231,0.9247,0.9282,0.9233,0.9437,0.9441,0.9445,0.9455,0.9462,0.9467,0,0,0,0,0,0.8796,0.8855,0.8856,0.8874,0.8972,0.9042,0.9055,0.9079,0.9062,0.9092,0.9124,0.9126,0.9267,0.9239,0.9257,0.9294,0.9435,0.944,0.9444,0.9453,0.946,0.9467,0,0,0,0,0,0,0.8802,0.8863,0.8865,0.8943,0.8987,0.9043,0.9082,0.9086,0.9137,0.9134,0.9163,0.9176,0.925,0.9279,0.9247,0.9371,0.9349,0.9358,0.935,0.9357,0.9363,0.9355,0.9239,0,0,0,0,0,0.8811,0.8862,0.8914,0.8978,0.9,0.9037,0.9069,0.9083,0.913,0.9149,0.9187,0.9234,0.9289,0.9325,0.9378,0.9459,0.9473,0.9494,0.9499,0.9504,0.9511,0.9556,0.9565,0.9462,0.9462,0.9462,0,0,0.8833,0.8873,0.8904,0.898,0.9016,0.9069,0.9053,0.911,0.915,0.9159,0.9231,0.926,0.9314,0.9392,0.9429,0.9419,0.9542,0.951,0.9513,0.9518,0.9562,0.9571,0.958,0.9466,0.9465,0.9465,0,0,0.89,0.8935,0.8992,0.9027,0.9081,0.9105,0.9119,0.9174,0.9193,0.9266,0.9273,0.9321,0.9415,0.9453,0.9485,0.9564,0.9568,0.9581,0.9612,0.9655,0.9663,0.967,0.9698,0.9708,0.9588,0.9588,0.9588,0,0.892,0.8999,0.9021,0.9077,0.9111,0.9119,0.9177,0.9211,0.928,0.9304,0.9291,0.9408,0.9446,0.9532,0.9551,0.9577,0.9593,0.9574,0.966,0.9667,0.9675,0.9701,0.9712,0.9589,0.9589,0.9589,0.9589,0,0.9022,0.9076,0.9116,0.918,0.9218,0.9276,0.9307,0.9343,0.9353,0.9378,0.9452,0.9496,0.9558,0.958,0.9592,0.9668,0.966,0.9654,0.9632,0.9685,0.9711,0.9721,0.9591,0.959,0.959,0.959,0,0,0.9096,0.917,0.9184,0.9213,0.9272,0.9315,0.9373,0.9432,0.9462,0.9509,0.9558,0.9636,0.963,0.9666,0.9681,0.9719,0.9778,0.9708,0.971,0.9719,0.9865,0.9869,0.9881,0.978,0.9783,0.9784,0.986,0,0.9169,0.927,0.929,0.9378,0.9429,0.9437,0.9487,0.9529,0.9554,0.9601,0.963,0.9684,0.9672,0.9694,0.9731,0.9763,0.9808,0.9758,0.9827,0.9829,0.9813,0.9894,0.99,0.9969,0.987,0.9872,0.9873,0,0.9268,0.9315,0.9407,0.9458,0.9481,0.9525,0.958,0.9625,0.9673,0.9688,0.9727,0.9739,0.9799,0.9774,0.9858,0.9823,0.9853,0.9873,0.9876,0.9884,0.9855,0.9904,0.9992,1.0002,0.9889,0.9888,0.9887,0,0.9312,0.9399,0.9465,0.949,0.9551,0.9582,0.9609,0.9655,0.9689,0.9737,0.9759,0.9815,0.9845,0.9888,0.9914,0.9893,0.9996,0.9973,1.0011,1.001,1.0033,1.0031,1.0126,1.0051,1.0051,1.0051,1.0051,0,0.9391,0.9448,0.9486,0.9527,0.959,0.9613,0.9675,0.9702,0.9743,0.9789,0.98,0.9844,0.9875,0.9924,0.9944,1.001,1.0024,1.0039,1.0044,1.0038,1.0036,1.0058,1.0054,1.0054,1.0053,1.0053,1.0052,0,0.9452,0.948,0.9552,0.9604,0.9618,0.9662,0.9707,0.9747,0.9771,0.983,0.9845,0.9884,0.9941,0.9971,1.0043,1.0057,1.0131,1.0133,1.0114,1.0116,1.0152,1.0148,1.0265,1.0281,1.0196,1.0197,1.0197,0,0.9501,0.9544,0.9599,0.963,0.9658,0.9708,0.9742,0.9767,0.9802,0.9858,0.9892,0.9949,0.9996,1.0087,1.0123,1.0177,1.0181,1.0218,1.0189,1.0182,1.0181,1.0178,1.0182,1.0223,1.0224,1.0225,1.0225,0,0.9585,0.9596,0.9643,0.9696,0.9735,0.9778,0.982,0.9845,0.9877,0.9916,0.9973,1.001,1.0082,1.0139,1.0196,1.0225,1.0231,1.0234,1.0245,1.024,1.0227,1.0234,1.0128,1.0231,1.0231,1.023,1.023,1.023,0.9641,0.9679,0.9723,0.9776,0.981,0.9849,0.9888,0.9917,0.9965,1.0025,1.0037,1.0098,1.0143,1.022,1.0251,1.0299,1.0292,1.0309,1.0313,1.0317,1.0318,1.0219,1.031,1.031,1.031,1.031,1.0309,0,0.9725,0.9753,0.9801,0.9859,0.99,0.99,0.9946,0.9981,1.0034,1.0076,1.0121,1.0187,1.0242,1.028,1.0336,1.0367,1.0371,1.0381,1.0379,1.0386,1.0322,1.0306,1.0377,1.0377,1.0377,1.0377,1.0377,1.0377,0.9773,0.9838,0.9854,0.9935,0.9964,1.0022,1.0048,1.0084,1.0117,1.019,1.0235,1.0259,1.03,1.0358,1.0408,1.0418,1.0438,1.0448,1.0458,1.0398,1.039,1.0384,1.0369,1.0452,1.0452,1.0518,1.0518,1.0519]},{"header":{"parameterUnit":"m.s-1","parameterCategory":1,"la1":30.2991,"la2":30.254,"lo1":-89.0895,"lo2":-89.0444,"dy":0.0017,"dx":0.0017,"nx":28,"ny":28,"refTime":"2023-09-08T21:00:00:Z","depth":0,"parameterNumber":3,"parameterNumberName":"V-component_of_WINDS"},"data":[0,0,0,0,0,0,0,0,0,0,0,0,0,0,0,0,0,0,0,0,0,0,0,0,0,0,0,0,0,0,0,0,0,0,0,0,0,0,0,0,0,0,0,0,0,0,0,0,0,0,0,0,0,0,0,0,0,0,1.2818,1.2819,0,1.2929,1.293,1.2931,1.289,1.2887,1.2885,1.2883,1.2995,1.3,1.3005,0,0,0,0,0,0,0,0,0,0,0,0,0,1.2566,1.257,1.2818,1.2819,1.2821,1.2929,1.293,1.2932,1.289,1.2887,1.2884,1.2881,1.2993,1.3,1.3006,0,0,0,0,0,0,0,0,0,0,0,0,0,1.2676,1.2572,1.2818,1.2813,1.2814,1.2928,1.293,1.2932,1.2891,1.2887,1.2884,1.288,1.2991,1.2999,1.3007,1.3132,0,0,1.3031,1.3035,0,0,0,0,0,0,0,0,1.2669,1.2685,1.2812,1.2814,1.2815,1.2892,1.2882,1.2999,1.2892,1.2862,1.2883,1.2878,1.2964,1.2974,1.3003,1.3137,1.3142,1.3032,1.3037,1.304,1.3043,0,0,0,0,0,0,0,1.2662,1.268,1.2862,1.2814,1.2816,1.2804,1.2815,1.2904,1.2933,1.2864,1.2861,1.2875,1.2963,1.2995,1.3005,1.3144,1.3032,1.3039,1.3044,1.3047,1.3378,1.3382,0,0,0,0,0,0,1.2654,1.2674,1.2858,1.2865,1.2731,1.2811,1.2824,1.2871,1.2931,1.2937,1.2878,1.2873,1.2983,1.2996,1.3009,1.3153,1.304,1.3048,1.3052,1.3374,1.3379,1.3383,0,0,0,0,0,0,1.2649,1.2671,1.2854,1.2769,1.2791,1.282,1.2872,1.2875,1.2906,1.2942,1.2947,1.2906,1.2981,1.2998,1.31,1.3157,1.3051,1.3059,1.3369,1.3376,1.3381,1.3447,0,0,0,0,0,0,1.2642,1.267,1.2719,1.277,1.2796,1.2945,1.2876,1.288,1.2921,1.2914,1.2969,1.2974,1.2979,1.3088,1.3108,1.3166,1.3065,1.3364,1.3372,1.3379,1.344,1.3455,1.3467,0,0,0,0,0,1.2633,1.2735,1.2722,1.2744,1.2858,1.2948,1.2963,1.2967,1.2926,1.2974,1.2995,1.2973,1.3148,1.3099,1.3121,1.3182,1.3361,1.337,1.3379,1.3434,1.3452,1.3467,0,0,0,0,0,0,1.2691,1.2742,1.2728,1.2849,1.2895,1.2941,1.3003,1.2987,1.3045,1.3036,1.3038,1.3051,1.3154,1.3179,1.3124,1.3303,1.3248,1.3262,1.3282,1.33,1.3313,1.3303,1.3072,0,0,0,0,0,1.2718,1.2788,1.2828,1.2931,1.2954,1.2975,1.3014,1.3012,1.3059,1.3078,1.3108,1.3154,1.3218,1.3261,1.3323,1.3444,1.3452,1.3497,1.351,1.3521,1.3532,1.3591,1.3609,1.3413,1.3413,1.3412,0,0,1.2774,1.281,1.2855,1.2943,1.2978,1.3047,1.2991,1.3069,1.3119,1.309,1.3187,1.321,1.3261,1.3371,1.3421,1.3395,1.3588,1.3533,1.3541,1.3546,1.3602,1.3621,1.3637,1.3419,1.3418,1.3417,0,0,1.2911,1.2948,1.3034,1.3069,1.3122,1.3134,1.3155,1.3203,1.3216,1.3313,1.3291,1.335,1.3464,1.3498,1.3531,1.3675,1.3653,1.3695,1.3765,1.3823,1.3838,1.3852,1.3897,1.3914,1.3706,1.3707,1.3707,0,1.2974,1.3079,1.3081,1.3158,1.3195,1.3171,1.3256,1.329,1.3361,1.3386,1.3355,1.3492,1.3525,1.364,1.3674,1.3703,1.3723,1.3688,1.3836,1.385,1.3862,1.3905,1.3923,1.3711,1.371,1.371,1.371,0,1.315,1.3223,1.3287,1.3352,1.3397,1.3479,1.349,1.3535,1.3528,1.3542,1.3638,1.3676,1.3742,1.377,1.3766,1.3882,1.3863,1.3835,1.3779,1.3885,1.3925,1.3943,1.3717,1.3716,1.3714,1.3713,0,0,1.3328,1.3391,1.3413,1.344,1.3494,1.3549,1.3627,1.3691,1.3726,1.3775,1.3837,1.3931,1.3902,1.3939,1.3938,1.3989,1.4092,1.3953,1.3954,1.3973,1.4216,1.4234,1.4254,1.408,1.4083,1.4086,1.421,0,1.3465,1.3601,1.3603,1.3727,1.3791,1.3766,1.3833,1.3872,1.3886,1.394,1.3956,1.402,1.3981,1.4002,1.4052,1.407,1.414,1.4061,1.4134,1.4136,1.4117,1.4276,1.4296,1.4412,1.4226,1.4229,1.4231,0,1.3643,1.3694,1.3824,1.3862,1.3889,1.395,1.4004,1.4059,1.41,1.4106,1.4145,1.4134,1.421,1.4154,1.4255,1.42,1.423,1.4243,1.4247,1.4251,1.4187,1.4279,1.445,1.4465,1.4257,1.4255,1.4253,0,1.3752,1.3854,1.3943,1.3967,1.4016,1.4058,1.408,1.4118,1.4154,1.4202,1.4224,1.4281,1.4311,1.4354,1.4357,1.4317,1.4457,1.4403,1.4461,1.446,1.4489,1.4487,1.4662,1.4516,1.4516,1.4515,1.4515,0,1.3902,1.3981,1.3991,1.4046,1.4132,1.4132,1.4217,1.4235,1.4268,1.4323,1.4307,1.4358,1.4362,1.4415,1.4418,1.4498,1.4513,1.4517,1.4516,1.4516,1.4515,1.4533,1.4523,1.452,1.4519,1.4518,1.4517,0,1.4038,1.4048,1.4143,1.418,1.419,1.4252,1.4282,1.4332,1.4344,1.4413,1.443,1.4447,1.4507,1.4516,1.4587,1.4589,1.4683,1.4676,1.4668,1.4666,1.4721,1.4714,1.4911,1.4934,1.4777,1.4779,1.478,0,1.413,1.419,1.4232,1.4267,1.429,1.4349,1.4384,1.4385,1.4422,1.447,1.4514,1.4572,1.4618,1.4715,1.4733,1.4785,1.4777,1.4842,1.4785,1.478,1.4771,1.4766,1.4769,1.4852,1.4854,1.4855,1.4856,0,1.4292,1.4293,1.4345,1.4397,1.4439,1.4481,1.452,1.4549,1.4555,1.4597,1.4657,1.4693,1.4763,1.4819,1.487,1.4891,1.4873,1.4874,1.4889,1.4888,1.4879,1.4879,1.4693,1.4869,1.4868,1.4867,1.4866,1.4866,1.4405,1.4454,1.449,1.4546,1.4575,1.461,1.4657,1.4673,1.4723,1.478,1.4777,1.4842,1.4877,1.4943,1.4967,1.5016,1.4994,1.5018,1.5023,1.5028,1.503,1.4874,1.5026,1.5026,1.5025,1.5025,1.5025,0,1.4561,1.4581,1.4633,1.4686,1.473,1.4709,1.475,1.4787,1.4844,1.4878,1.4922,1.4989,1.5042,1.5062,1.5113,1.5148,1.5141,1.5161,1.5156,1.516,1.505,1.5029,1.5166,1.5166,1.5166,1.5166,1.5166,1.5165,1.4647,1.4726,1.4731,1.4823,1.4843,1.4905,1.4929,1.496,1.4986,1.5061,1.5104,1.5117,1.5144,1.5196,1.5242,1.5247,1.5264,1.5287,1.5287,1.5183,1.5169,1.5155,1.5135,1.5292,1.5292,1.5393,1.5394,1.5394]}]]